Wind_Speed
8 9 9 10 10 10 10 10 10 10 10 10 11 12 13 13 14 16 17 10 8 11 9 7 7 6 5 5 5 5 3 2 5 6 5 3 2 2 3 10 9 12 20 23 24
9 9 10 11 11 11 11 12 12 12 12 12 12 13 14 15 17 20 7 5 6 7 10 8 8 8 4 5 4 4 4 8 6 6 5 5 7 11 4 10 16 17 24 24 24
10 11 12 13 13 14 14 14 14 14 14 14 15 16 16 16 18 1 1 5 2 7 10 9 8 8 5 4 6 5 6 5 7 17 13 7 7 8 4 7 28 23 24 20 22
13 14 15 15 16 16 16 17 16 16 16 16 15 16 17 14 6 1 5 13 12 8 12 10 8 5 4 5 7 3 13 11 5 8 6 6 8 5 14 33 35 36 33 33 32
13 14 15 16 17 17 18 18 18 18 18 17 17 16 17 8 19 21 19 15 10 9 13 13 13 8 4 5 3 4 5 13 20 17 23 22 27 12 26 44 40 37 33 31 28
13 13 14 15 17 18 19 20 20 20 19 19 17 17 18 11 15 11 8 10 10 10 14 15 9 12 4 5 6 2 8 17 14 18 18 9 26 4 26 32 30 29 32 33 31
11 12 13 14 16 17 18 20 22 21 20 19 18 17 22 31 20 19 22 21 16 15 16 16 16 8 3 3 6 4 6 9 7 11 8 7 9 11 32 25 28 34 26 26 27
7 9 11 12 14 15 17 19 20 20 19 18 17 16 17 22 22 22 24 28 22 15 15 14 12 11 9 7 2 2 1 4 4 5 4 11 13 15 32 19 22 23 35 40 39
6 8 10 12 13 15 16 17 18 18 17 15 14 11 11 16 14 16 21 20 15 14 11 6 9 5 4 3 4 2 5 7 10 11 4 7 9 11 16 20 29 39 46 50 50
7 9 10 12 13 15 16 16 15 13 10 7 9 4 14 12 9 10 10 11 8 8 7 7 4 2 3 3 7 7 5 5 6 8 5 7 14 15 34 36 38 39 41 47 47
9 11 12 13 14 17 18 14 7 4 3 6 6 9 13 7 14 10 6 9 8 7 5 3 4 8 14 15 3 3 5 6 13 12 4 24 19 14 25 26 35 41 39 31 38
13 12 14 15 15 16 15 8 8 8 12 17 22 26 30 25 7 10 7 9 8 6 7 4 7 17 3 5 8 7 8 15 8 12 3 13 21 21 19 27 30 35 35 27 31
15 14 12 12 15 14 12 11 13 14 5 11 16 15 12 14 9 13 11 7 5 7 8 8 6 3 6 4 7 4 6 10 10 7 6 8 8 4 7 12 22 28 25 27 26
14 15 15 14 12 8 9 12 13 14 3 7 4 2 3 5 2 5 13 5 2 7 7 6 3 6 4 6 7 7 10 10 6 5 4 6 13 5 7 9 8 10 11 10 11
17 17 16 13 9 9 8 9 10 6 5 3 2 1 2 3 3 2 7 4 3 5 5 7 6 4 4 8 8 10 3 3 2 3 4 1 3 5 3 7 7 6 7 11 16
17 16 15 11 8 8 6 4 6 3 8 4 1 1 1 2 1 4 4 4 2 2 2 6 2 5 7 4 6 4 3 5 4 2 4 8 7 2 4 5 1 3 28 29 23
10 9 6 5 4 1 2 1 2 5 3 3 3 1 1 2 2 3 3 4 6 2 4 1 5 2 3 1 1 3 4 4 3 1 8 1 2 7 5 10 5 8 22 15 28
8 7 7 6 8 7 6 2 10 5 7 1 1 1 4 4 2 2 2 4 6 3 2 3 16 7 5 7 7 7 9 7 7 6 9 2 7 13 8 6 14 15 17 27 30
14 17 18 14 11 11 7 6 5 6 5 1 4 4 3 2 2 1 4 4 5 9 8 5 8 1 5 5 6 3 6 4 1 2 1 7 12 14 8 7 17 25 33 33 33
16 16 19 13 13 17 5 13 6 5 3 4 4 5 5 4 4 2 4 2 4 8 1 2 8 4 3 1 5 7 1 1 2 3 13 6 14 14 13 12 13 16 21 23 29
13 5 6 12 17 13 8 7 6 14 10 4 8 8 10 8 7 4 5 5 5 3 6 3 7 11 2 7 8 2 4 4 3 5 11 10 7 8 8 9 9 9 13 18 23
9 2 7 16 10 5 9 4 5 13 12 4 4 5 10 13 14 11 12 9 8 4 5 5 4 6 11 7 1 2 7 7 6 7 5 8 9 4 12 11 11 10 13 19 21
9 5 11 20 5 8 5 5 9 4 9 4 6 5 2 7 10 8 5 3 7 5 4 1 3 6 5 3 3 2 1 5 4 4 13 11 4 5 10 11 14 11 14 16 19
6 2 4 16 15 2 5 12 12 9 8 12 8 7 8 10 10 11 10 4 1 0 1 2 4 13 15 8 3 8 15 6 6 7 11 11 12 10 7 11 12 12 12 15 22
6 3 3 4 5 5 4 7 4 5 4 5 4 4 3 5 5 5 4 5 4 6 3 3 8 8 12 15 6 8 10 14 15 16 10 16 19 21 2 3 7 13 13 17 20
6 4 5 3 6 2 5 5 14 12 4 13 9 11 6 9 8 12 7 9 11 1 2 2 8 3 7 8 8 14 16 19 20 18 15 18 22 5 3 3 6 12 8 14 24
6 5 3 2 2 4 4 2 3 2 4 7 6 4 4 1 1 3 6 9 6 4 3 3 2 3 19 10 7 10 17 15 14 17 13 16 3 2 2 3 8 9 4 14 24
Wind_Direction
327 328 329 329 328 327 325 323 323 322 320 322 323 323 323 323 318 310 302 283 264 234 228 215 206 199 186 186 176 156 75 211 244 172 246 264 273 238 228 267 249 250 259 278 284
313 314 314 314 314 314 314 313 312 311 310 312 313 315 317 319 316 310 298 281 242 236 229 227 214 198 185 188 186 150 142 220 213 199 222 251 254 276 234 257 268 265 279 280 281
301 302 303 304 304 305 304 303 303 303 303 305 308 311 314 322 321 251 91 23 356 241 221 219 218 200 203 197 200 181 205 218 241 239 254 258 266 261 210 256 270 269 295 293 279
292 295 296 297 298 298 297 297 296 296 296 297 299 303 305 311 299 179 288 309 302 252 221 215 202 196 199 213 209 217 241 236 253 249 265 253 274 237 241 265 288 293 293 289 285
290 291 293 294 295 296 295 293 291 290 289 289 291 292 297 279 266 283 282 281 273 252 232 223 207 202 195 206 214 224 251 255 263 266 268 277 272 259 259 282 291 292 291 290 288
291 294 296 298 299 300 301 299 295 292 289 286 284 283 282 249 278 279 271 265 258 248 233 223 220 228 263 225 189 262 270 280 283 273 259 226 271 257 271 284 292 293 296 295 291
297 301 304 305 305 304 303 299 297 295 292 288 283 277 273 265 271 270 272 273 260 254 241 235 226 197 176 267 237 261 300 311 233 268 225 205 286 236 275 281 286 291 292 302 297
314 319 319 317 316 315 312 305 300 295 291 285 279 270 264 278 273 265 261 262 259 249 242 240 231 229 238 255 313 274 111 301 253 174 226 169 258 271 289 287 279 286 292 294 288
327 330 330 329 329 328 327 319 313 302 293 285 270 242 262 268 277 270 261 255 261 242 225 214 187 206 215 103 9 320 242 223 308 226 140 188 250 265 296 304 290 288 289 291 290
318 321 326 328 331 331 334 329 316 305 296 285 250 240 250 263 269 270 259 232 222 196 155 168 158 126 42 99 239 235 228 247 253 289 167 215 247 278 287 292 284 284 280 284 289
305 313 318 323 330 341 343 349 347 328 329 279 266 240 285 285 272 275 243 187 169 164 155 145 115 211 219 206 130 235 231 250 266 273 293 284 280 272 277 268 273 278 279 280 293
278 286 309 320 324 335 350 16 357 308 300 282 267 252 254 254 264 257 220 177 169 172 118 61 210 222 173 165 224 247 277 270 277 266 178 272 286 285 261 266 262 267 280 293 302
272 281 292 302 310 322 347 348 339 334 261 280 254 259 257 253 232 246 209 207 162 156 191 193 219 141 181 205 243 214 228 268 260 325 253 308 269 220 263 249 272 269 283 295 308
274 278 284 291 309 324 334 337 337 337 352 276 262 254 217 190 241 221 200 205 198 219 163 229 270 190 157 212 174 259 232 251 276 353 276 28 302 205 243 271 263 321 307 351 13
264 270 281 292 300 326 323 336 343 1 298 257 244 227 182 181 147 62 190 200 223 188 130 249 171 167 171 218 155 227 189 249 153 182 328 28 307 277 198 251 291 302 24 28 20
273 277 280 286 295 295 297 327 341 30 247 315 181 218 135 198 145 128 148 166 129 193 297 247 313 190 220 218 198 101 87 46 57 87 285 212 191 25 171 197 257 302 338 341 357
272 280 268 258 265 200 281 7 340 214 335 271 241 165 268 214 187 176 156 188 176 237 243 228 227 251 182 167 33 112 73 318 324 26 230 182 230 238 277 287 8 313 322 20 7
269 266 261 248 240 239 217 113 242 179 221 25 305 13 228 174 203 115 91 279 232 136 169 212 283 186 168 206 201 187 169 187 218 235 262 165 246 267 209 13 319 353 61 21 21
266 268 264 260 247 215 196 226 228 183 199 313 331 292 280 329 214 135 210 249 253 187 221 195 263 197 210 163 158 170 195 234 285 60 281 256 272 296 319 66 46 39 34 24 23
263 263 264 255 238 210 215 237 231 191 138 59 215 210 256 197 179 168 211 194 260 208 172 290 302 188 306 117 228 185 173 177 303 213 243 220 253 258 301 71 39 27 22 20 18
257 248 220 195 197 199 230 245 249 237 249 251 248 269 278 291 244 231 215 241 201 250 215 238 205 261 102 197 206 167 244 237 286 214 248 252 233 237 94 93 85 48 32 26 20
191 183 188 180 182 195 231 209 241 277 293 283 343 248 257 275 278 277 266 241 292 200 208 224 213 201 235 242 236 241 249 211 227 232 252 249 246 358 104 93 82 67 44 26 12
172 193 173 183 213 219 252 250 244 242 246 234 255 246 287 287 291 253 272 348 337 234 266 136 225 281 272 322 20 154 289 254 246 185 254 262 261 123 53 43 35 42 33 28 22
163 127 200 206 234 260 222 258 257 269 264 228 248 261 272 270 255 278 283 290 304 257 264 16 227 255 256 257 314 276 274 247 244 263 273 259 283 284 2 350 3 3 358 6 1
169 204 174 196 268 253 239 275 279 287 260 66 331 268 313 293 298 252 310 0 345 304 294 206 259 256 267 273 266 257 274 277 271 269 265 283 284 282 112 318 330 330 334 354 351
161 153 169 200 246 201 186 237 248 272 254 281 241 295 295 272 272 297 298 284 272 223 293 223 268 234 264 264 256 277 275 267 272 278 268 260 261 116 178 281 318 330 331 345 342
181 169 150 226 171 135 215 208 95 26 99 82 45 334 305 280 99 272 280 281 274 284 230 259 284 247 274 291 319 269 249 260 261 260 265 262 267 168 258 256 283 314 291 327 329
Height
1556 1555 1555 1555 1555 1554 1554 1553 1553 1552 1551 1551 1550 1549 1548 1547 1546 1544 1542 1542 1542 1542 1543 1544 1545 1546 1547 1547 1549 1549 1559 1566 1556 1558 1544 1539 1538 1536 1536 1535 1533 1532 1529 1528 1526
1555 1554 1554 1553 1553 1552 1552 1552 1551 1551 1550 1549 1548 1547 1546 1545 1543 1540 1540 1538 1540 1541 1542 1543 1544 1545 1546 1547 1547 1548 1559 1553 1543 1541 1539 1536 1535 1534 1535 1532 1526 1526 1524 1524 1523
1553 1553 1553 1552 1551 1551 1550 1549 1549 1548 1548 1547 1547 1546 1545 1544 1541 1538 1538 1538 1539 1540 1541 1542 1544 1545 1546 1546 1545 1546 1548 1540 1537 1535 1534 1534 1530 1530 1530 1526 1517 1517 1518 1519 1518
1552 1551 1550 1550 1549 1549 1548 1547 1546 1545 1545 1545 1544 1543 1542 1543 1547 1537 1537 1537 1537 1538 1539 1541 1543 1544 1545 1545 1542 1544 1537 1536 1534 1534 1533 1531 1527 1525 1525 1511 1512 1511 1511 1510 1510
1549 1549 1548 1547 1547 1546 1545 1544 1544 1543 1542 1541 1541 1541 1539 1539 1536 1535 1535 1534 1535 1535 1536 1538 1539 1540 1542 1541 1541 1541 1535 1533 1531 1531 1528 1528 1521 1523 1512 1506 1507 1507 1504 1502 1502
1547 1546 1545 1545 1544 1543 1542 1541 1539 1539 1539 1538 1538 1537 1537 1534 1530 1531 1531 1531 1531 1531 1532 1533 1535 1537 1538 1539 1539 1535 1533 1529 1527 1525 1524 1525 1515 1517 1500 1505 1503 1502 1498 1497 1496
1545 1544 1543 1542 1541 1540 1538 1537 1536 1535 1535 1534 1534 1534 1532 1524 1527 1528 1528 1527 1527 1528 1529 1531 1532 1534 1535 1534 1532 1531 1532 1525 1520 1515 1517 1518 1518 1510 1496 1500 1500 1495 1494 1493 1491
1543 1542 1541 1540 1538 1537 1535 1533 1531 1530 1530 1530 1530 1530 1525 1521 1521 1521 1523 1522 1523 1525 1527 1528 1530 1533 1533 1531 1530 1532 1533 1534 1512 1512 1511 1513 1513 1496 1497 1496 1493 1491 1487 1486 1484
1541 1540 1539 1538 1536 1534 1533 1530 1528 1526 1525 1525 1526 1527 1521 1516 1516 1516 1517 1519 1521 1523 1525 1527 1530 1531 1530 1533 1539 1537 1537 1535 1525 1504 1508 1512 1508 1493 1494 1494 1489 1485 1481 1476 1471
1539 1538 1537 1536 1534 1532 1530 1527 1524 1522 1521 1521 1523 1528 1518 1515 1513 1512 1512 1515 1518 1521 1525 1527 1528 1531 1535 1537 1540 1533 1537 1534 1529 1505 1508 1509 1505 1496 1494 1491 1480 1475 1469 1464 1463
1536 1535 1535 1534 1533 1531 1529 1526 1525 1522 1520 1520 1520 1517 1514 1514 1513 1511 1510 1512 1516 1520 1525 1526 1532 1534 1522 1522 1523 1523 1527 1529 1514 1506 1508 1495 1492 1491 1486 1481 1471 1463 1458 1459 1458
1533 1533 1532 1532 1531 1530 1528 1527 1528 1529 1519 1514 1510 1509 1507 1508 1510 1509 1512 1513 1513 1517 1521 1529 1530 1515 1515 1518 1521 1524 1526 1520 1511 1501 1507 1497 1487 1480 1473 1465 1462 1457 1454 1458 1454
1530 1530 1530 1529 1529 1529 1527 1527 1525 1522 1520 1508 1503 1502 1502 1503 1505 1506 1510 1509 1510 1517 1518 1519 1513 1512 1515 1519 1521 1524 1523 1512 1514 1508 1502 1496 1480 1476 1461 1457 1455 1449 1456 1457 1457
1527 1528 1527 1527 1530 1527 1526 1525 1524 1520 1522 1509 1502 1500 1501 1499 1502 1502 1505 1509 1509 1510 1515 1516 1508 1510 1515 1514 1517 1521 1507 1508 1511 1514 1513 1501 1478 1474 1458 1457 1449 1453 1453 1456 1458
1524 1525 1525 1524 1526 1526 1527 1524 1523 1520 1530 1503 1502 1501 1500 1503 1502 1501 1504 1507 1508 1510 1511 1506 1507 1509 1510 1505 1504 1504 1501 1504 1506 1513 1512 1506 1513 1471 1462 1457 1454 1452 1452 1452 1452
1521 1521 1522 1523 1524 1525 1524 1523 1523 1529 1523 1503 1500 1501 1501 1500 1500 1501 1502 1506 1507 1509 1510 1505 1503 1502 1500 1498 1500 1500 1502 1510 1515 1513 1517 1495 1498 1465 1461 1450 1450 1448 1448 1449 1447
1516 1518 1520 1520 1522 1522 1524 1524 1529 1527 1507 1502 1500 1500 1501 1499 1499 1502 1503 1505 1504 1508 1508 1501 1501 1494 1496 1499 1502 1501 1508 1521 1522 1532 1506 1496 1500 1462 1449 1445 1451 1452 1452 1457 1456
1513 1514 1517 1520 1519 1520 1524 1525 1524 1505 1505 1499 1500 1501 1501 1499 1498 1501 1503 1504 1502 1500 1509 1505 1493 1493 1491 1493 1493 1503 1501 1509 1512 1510 1483 1509 1483 1442 1445 1448 1452 1452 1457 1457 1455
1508 1510 1512 1517 1518 1516 1523 1518 1503 1504 1499 1499 1502 1502 1503 1502 1501 1501 1505 1502 1498 1497 1499 1506 1495 1484 1486 1484 1488 1497 1500 1487 1493 1500 1496 1472 1465 1443 1441 1452 1457 1461 1458 1459 1457
1504 1505 1504 1510 1514 1515 1516 1502 1497 1494 1496 1497 1502 1502 1506 1504 1499 1502 1502 1494 1495 1494 1490 1491 1494 1481 1479 1483 1482 1483 1481 1491 1498 1495 1481 1469 1461 1452 1441 1460 1466 1464 1465 1465 1462
1498 1501 1498 1500 1509 1510 1506 1501 1494 1493 1496 1501 1498 1496 1498 1501 1499 1498 1497 1492 1488 1490 1494 1491 1490 1481 1480 1481 1480 1486 1484 1480 1481 1478 1463 1466 1455 1447 1458 1464 1466 1471 1467 1465 1463
1491 1497 1496 1500 1505 1500 1497 1493 1499 1490 1494 1497 1495 1495 1498 1497 1497 1494 1491 1491 1488 1487 1489 1486 1487 1482 1477 1470 1470 1471 1471 1469 1476 1469 1464 1453 1450 1446 1459 1462 1465 1468 1466 1462 1463
1489 1491 1493 1494 1497 1494 1494 1488 1491 1489 1491 1494 1493 1491 1491 1494 1497 1487 1484 1485 1486 1488 1486 1484 1481 1476 1470 1469 1472 1470 1471 1470 1467 1469 1460 1459 1449 1448 1454 1456 1458 1463 1463 1461 1461
1487 1492 1492 1493 1490 1490 1493 1488 1488 1484 1484 1487 1487 1487 1490 1488 1490 1486 1485 1484 1484 1483 1486 1485 1481 1474 1465 1463 1467 1471 1472 1471 1471 1460 1454 1452 1447 1448 1459 1461 1461 1460 1461 1457 1454
1485 1488 1487 1487 1488 1488 1493 1487 1488 1489 1485 1483 1485 1487 1490 1487 1487 1487 1486 1486 1486 1485 1481 1481 1474 1474 1470 1471 1472 1474 1475 1473 1474 1467 1464 1455 1453 1446 1460 1463 1460 1459 1457 1453 1453
1482 1484 1487 1487 1489 1488 1488 1486 1485 1483 1488 1481 1488 1487 1489 1489 1488 1487 1488 1488 1484 1483 1483 1481 1470 1476 1474 1468 1472 1467 1464 1459 1457 1455 1453 1450 1442 1457 1459 1460 1458 1459 1455 1453 1451
1480 1482 1483 1485 1485 1486 1485 1481 1485 1484 1488 1488 1490 1491 1490 1487 1489 1489 1489 1489 1487 1484 1483 1482 1475 1474 1461 1464 1469 1466 1455 1452 1449 1444 1445 1445 1455 1458 1459 1458 1457 1455 1453 1451 1450